Overview Statistics Trail Chart Weather Telemetry Raw packets
 

This is the latest recevied weather packets stored in our database for station/object OK1TBM-13. If no packets are shown the sender has not sent any weather packets the latest 10 day(s).

<< 70 71 72 73 74 75 76 >>
Time Temp. Humidity Pressure Rain* Wind** Luminosity Snow
1788006901 24.44° C 50% 1014.6 hPa 0 mm - 750 W/m² -
1788006601 23.89° C 50% 1014.6 hPa 0 mm - 811 W/m² -
1788006301 24.44° C 48% 1014.6 hPa 0 mm - 695 W/m² -
1788006002 24.44° C 48% 1014.6 hPa 0 mm - 738 W/m² -
1788005701 23.89° C 51% 1014.6 hPa 0 mm - 135 W/m² -
1788005401 23.89° C 50% 1014.6 hPa 0 mm - 750 W/m² -
1788005102 24.44° C 50% 1014.6 hPa 0 mm - 776 W/m² -
1788004802 23.89° C 50% 1014.6 hPa 0 mm - 767 W/m² -
1788004501 23.89° C 54% 1014.6 hPa 0 mm - 808 W/m² -
1788004201 23.89° C 52% 1014.6 hPa 0 mm - 821 W/m² -
1788003901 23.89° C 54% 1014.6 hPa 0 mm - 770 W/m² -
1788003601 23.89° C 55% 1014.9 hPa 0 mm - 762 W/m² -
1788003301 23.33° C 56% 1014.9 hPa 0 mm - 790 W/m² -
1788003001 23.33° C 57% 1014.9 hPa 0 mm - 332 W/m² -
1788002701 22.22° C 59% 1014.6 hPa 0 mm - 168 W/m² -
1788002401 22.22° C 59% 1014.6 hPa 0 mm - 831 W/m² -
1788002101 22.22° C 59% 1014.6 hPa 0 mm - 185 W/m² -
1788001801 22.78° C 58% 1014.6 hPa 0 mm - 177 W/m² -
1788001501 23.89° C 55% 1014.6 hPa 0 mm - 565 W/m² -
1788001201 23.33° C 56% 1014.6 hPa 0 mm - 872 W/m² -
1788000901 22.78° C 58% 1014.6 hPa 0 mm - 645 W/m² -
1788000601 23.33° C 56% 1014.6 hPa 0 mm - 326 W/m² -
1788000301 22.78° C 57% 1014.6 hPa 0 mm - 663 W/m² -
1788000001 23.33° C 58% 1014.6 hPa 0 mm - 890 W/m² -
1787999702 22.78° C 58% 1014.6 hPa 0 mm - 815 W/m² -

* Rain latest hour (hover to see other rain measurements)
** Current wind speed in m/s (hover to see current wind gust speed)